Location: Bridgetown
(33.9500°S, 18.5333°E)
Time: 07:39:55
(UTC+00:00)

Daily predictions for brighter satellites

Satellite Brightness Start Highest point End
(mag) Time Altitude Azimuth Time Altitude Azimuth Time Altitude Azimuth
CZ-3 Stage 3 2.1 18:13:28 10° WNW 18:15:50 36° N 18:21:48 10° ENE
CZ-2C R/B 2.8 18:14:10 10° NNE 18:19:35 62° ESE 18:24:56 10° S
DMSP B5D2-2 4.2 18:18:24 10° NNE 18:23:40 88° WNW 18:28:59 10° SSW
Cosmos 2016 Rocket 4.5 18:17:35 10° S 18:23:40 43° E 18:29:36 10° NNE
SL-16 R/B 2.2 18:20:01 10° NNW 18:25:40 76° ENE 18:31:22 10° SSE
Cosmos 1633 3.9 18:22:50 10° SSE 18:25:43 22° ESE 18:28:33 10° NE
Cosmos 1500 Rocket 3.5 18:21:27 10° S 18:25:51 72° E 18:30:10 10° NNE
CSL-04 Debris 4.3 18:23:02 10° SSE 18:28:32 84° WSW 18:33:56 10° NNW
Lacrosse 4 Rocket 3.6 18:27:38 10° SSE 18:29:13 12° SE 18:30:48 10° ESE
Cosmos 1743 Rocket 3.7 18:25:42 10° S 18:30:13 90° SSE 18:34:44 10° N
Cosmos 1869 3.2 18:26:59 10° N 18:30:52 80° E 18:34:51 10° S
Aureole 1 Rocket 4.0 18:30:15 10° N 18:35:56 40° ENE 18:40:22 10° SE
Cosmos 2100 Rocket 4.1 18:33:00 10° S 18:39:19 85° W 18:45:36 10° N
USA 186 2.6 18:36:41 10° SE 18:39:29 28° E 18:42:08 10° NNE
SJ-6B 4.0 18:36:19 10° SE 18:39:46 25° E 18:43:08 10° NNE
CZ-4C R/B 4.2 18:35:08 10° NW 18:43:01 48° SW 18:50:02 10° SSE
CSL-04 Rocket 4.4 18:39:30 10° S 18:44:49 60° WSW 18:50:09 10° NNW
CZ-4 R/B 4.1 18:43:56 10° SSW 18:47:03 23° WSW 18:50:10 10° WNW
Ariane Rocket 3.0 18:42:05 10° SSE 18:47:10 63° ENE 18:52:11 10° N
YAOGAN 1 4.5 18:43:35 10° S 18:47:34 34° WSW 18:51:30 10° NW
Cosmos 2251 Rocket 4.4 18:42:23 10° NNW 18:47:39 55° WSW 18:52:59 10° S
Cosmos 1802 Rocket 4.0 18:41:24 10° S 18:47:41 84° E 18:53:51 10° N
Resurs 01 Rocket 3.7 18:48:34 10° E 18:48:53 10° E 18:48:53 10° E
CRYOSAT 2 4.5 18:48:49 10° SSE 18:53:39 55° E 18:58:25 10° N
MONITOR-E 3.7 18:52:13 10° SSE 18:55:00 71° E 18:57:43 10° N
Cosmos 2173 Rocket 4.4 18:51:17 10° SSW 18:57:22 64° W 19:03:27 10° N
FREGAT/IRIS 2.3 18:55:31 10° SSE 18:58:21 79° ENE 19:01:08 10° N
MOS 1 Rocket 3.4 18:57:14 10° N 19:01:33 72° WNW 19:06:05 10° SSW
ATLAS 3B CENTAUR R/B 2.4 18:59:55 10° NW 19:03:05 33° NNE 19:06:41 18° ENE
Cosmos 1328 Rocket 4.1 19:03:37 18° NNE 19:06:26 38° E 19:10:32 10° SSE
Cosmos 1943 3.9 19:01:45 10° NNE 19:06:44 32° ENE 19:11:45 10° SE
Sich 1 3.1 19:03:10 10° S 19:07:39 65° E 19:10:53 18° NNE
Cosmos 1666 Rocket 3.9 19:04:10 10° S 19:08:23 44° E 19:10:33 24° NE
STARLINK-80 4.0 19:05:31 10° SW 19:09:17 50° NW 19:11:30 22° NNE
Cosmos 2369 Rocket 3.7 19:05:46 10° S 19:09:55 20° ESE 19:12:13 16° E
Cosmos 2123 Rocket 4.3 19:04:05 10° NNW 19:10:15 68° W 19:16:29 10° S
Cosmos 407 Rocket 3.5 19:05:41 10° N 19:10:40 55° ENE 19:15:44 10° SSE
Cosmos 1190 Rocket 4.2 19:08:41 10° N 19:13:48 50° ENE 19:18:55 10° SSE
GPS 2-04 Rocket1 2.9 19:09:49 10° W 19:13:52 67° S 19:16:18 21° ESE
Cosmos 1725 Rocket 4.1 19:10:11 10° S 19:16:36 86° W 19:22:52 10° N
DEBRIS 1.7 19:14:48 10° SW 19:16:48 62° SE 19:17:06 53° E
STARLINK-61 4.4 19:13:18 10° SSW 19:17:01 37° SE 19:18:33 26° E
ARGOS Delta rocket 4.4 19:14:23 10° SSE 19:19:43 46° E 19:22:56 22° NNE
Meteor 2-20 4.4 19:14:53 10° N 19:21:01 76° E 19:27:14 10° S
MOS 1 4.3 19:17:10 10° SSE 19:22:57 90° WSW 19:28:41 10° NNW
CZ-2C R/B 2.8 19:18:51 10° SSE 19:23:44 68° ENE 19:28:29 11° N
Cosmos 1633 Rocket 3.2 19:20:30 10° S 19:24:56 57° E 19:26:39 34° NE
ARGOS 3.0 19:20:09 10° SSE 19:25:35 77° ENE 19:30:57 10° N
Cosmos 676 Rocket 4.5 19:24:58 29° NE 19:26:46 38° E 19:31:36 10° SE
Hubble Space Telescope 1.4 19:23:46 10° WNW 19:27:39 38° N 19:28:16 36° NNE
Lacrosse 5 rocket 3.7 19:28:26 10° W 19:30:55 16° WNW 19:33:28 10° NNW
ASTRO E2 3.9 19:29:21 10° NW 19:31:58 27° N 19:31:58 27° N
Resurs 1-3 3.7 19:32:25 10° SSE 19:36:48 54° E 19:37:50 43° NNE
Meteor 2-20 Rocket 4.4 19:31:38 14° N 19:36:57 76° E 19:43:10 10° S
Cosmos 614 Rocket 4.3 19:32:58 10° NNW 19:38:10 69° WSW 19:43:23 10° SSE
Cosmos 1606 2.8 19:39:30 53° E 19:39:30 53° E 19:43:13 10° SSE
NOSS 3-1 (C) 3.1 19:33:31 10° SSW 19:39:36 88° ESE 19:41:49 38° NNE
ATLAS CENTAUR R/B 1.4 19:40:01 10° NW 19:43:34 65° WSW 19:47:21 10° SSE
STARLINK-39 4.5 19:40:55 10° SSW 19:44:44 36° SE 19:45:19 34° ESE
Cosmos 1400 Rocket 3.6 19:41:42 12° NNW 19:45:22 53° W 19:49:28 10° S
Cosmos 1470 Rocket 3.7 19:42:04 10° S 19:46:29 52° E 19:46:48 51° E
STARLINK 4.4 19:42:40 10° SSW 19:46:31 38° SE 19:47:02 36° ESE
Cosmos 1933 3.2 19:46:07 62° NNE 19:46:38 73° E 19:50:43 10° S
STARLINK-26 3.6 19:44:49 10° SW 19:48:14 52° NW 19:48:14 52° NW
STARLINK-69 4.2 19:44:22 10° SSW 19:48:16 43° SE 19:48:41 41° ESE
STARLINK-21 4.3 19:45:51 10° SSW 19:49:44 41° SE 19:50:06 40° SE
H-2A R/B 2.8 19:44:57 10° S 19:49:46 48° WSW 19:54:29 10° NNW
Cosmos 1346 Rocket 4.1 19:47:04 10° SSE 19:49:48 27° SE 19:49:48 27° SE
STARLINK-45 4.0 19:47:42 10° SW 19:51:41 47° SE 19:51:57 46° SE
STARLINK-70 4.1 19:49:13 10° SSW 19:53:09 47° SE 19:53:21 46° SE
STARLINK-76 4.1 19:50:53 10° SSW 19:54:50 46° SE 19:55:00 45° SE
STARLINK 4.1 19:52:23 10° SW 19:56:20 47° SE 19:56:25 47° SE
STARLINK-32 4.0 19:54:03 10° SW 19:58:01 49° SE 19:58:02 49° SE
STARLINK-75 3.7 19:55:46 10° SW 19:59:09 60° S 19:59:09 60° S
STARLINK-40 4.0 19:55:41 10° SW 19:59:36 51° SE 19:59:36 51° SE
Centaur AC-119 3.6 19:48:10 10° W 19:59:56 44° NNW 20:00:28 42° N
Meteor 1-26 Rocket 4.3 19:58:39 47° NNE 20:00:11 61° E 20:06:04 10° SSE
Cosmos 1943 Rocket 2.1 19:55:24 10° SSW 20:01:07 72° ESE 20:02:18 55° NE
STARLINK-44 4.0 19:57:15 10° SW 20:01:08 52° SE 20:01:08 52° SE
STARLINK-41 3.9 19:59:02 10° SW 20:02:14 52° S 20:02:14 52° S
STARLINK-37 3.9 19:59:02 10° SW 20:02:52 58° SSE 20:02:52 58° SSE
NOSS 2-3 (E) 4.2 19:57:24 10° SSW 20:03:49 64° SE 20:04:43 55° ENE
ATLAS 5 CENTAUR R/B 4.4 19:56:07 10° WNW 20:04:38 43° N 20:44:52 10° ENE
STARLINK-36 3.9 20:00:37 10° SW 20:04:23 55° SSE 20:04:23 55° SSE
STARLINK 4.0 20:01:33 10° SW 20:04:40 49° S 20:04:40 49° S
MetOp-A 4.2 20:00:20 10° S 20:05:46 80° WSW 20:08:26 31° NNW
Cosmos 1151 Rocket 4.3 20:02:51 17° NW 20:05:53 40° W 20:10:05 10° S
STARLINK-68 3.8 20:02:26 10° SW 20:06:10 62° S 20:06:10 62° S
STARLINK-63 3.9 20:03:59 10° SW 20:07:38 60° S 20:07:38 60° S
Cosmos 2228 Rocket 3.1 20:08:21 71° ESE 20:08:21 71° ESE 20:12:44 10° S
Lacrosse 4 Rocket 1.8 20:04:13 10° SW 20:08:13 51° WNW 20:08:17 51° WNW
STARLINK-35 3.9 20:05:32 10° SW 20:09:07 58° S 20:09:07 58° S
Cosmos 1140 Rocket 4.1 20:04:32 10° NNW 20:09:36 55° WSW 20:14:42 10° S
STARLINK-51 4.0 20:07:11 10° SW 20:10:43 59° S 20:10:43 59° S
STARLINK-30 4.0 20:08:59 10° SW 20:12:29 59° S 20:12:29 59° S
STARLINK-72 4.0 20:10:29 10° SW 20:13:54 58° SSW 20:13:54 58° SSW
USA 229 DEB 4.1 20:08:05 10° SW 20:14:34 51° WNW 20:16:51 36° NNW
USA 229 4.1 20:08:12 10° SW 20:14:41 51° WNW 20:16:57 36° NNW
STARLINK-50 4.1 20:12:08 10° SW 20:15:29 57° SSW 20:15:29 57° SSW
NOSS 2-3 (D) 4.0 20:11:00 10° SSW 20:17:28 78° ESE 20:17:56 72° ENE
STARLINK-59 4.1 20:13:53 10° SW 20:17:10 56° SSW 20:17:10 56° SSW
Geosat 4.2 20:17:57 54° NNW 20:18:41 60° WNW 20:23:42 10° SSW
STARLINK-56 4.2 20:15:27 10° SW 20:18:41 54° SSW 20:18:41 54° SSW
STARLINK-58 4.3 20:16:04 10° SW 20:19:06 50° SW 20:19:06 50° SW
Cosmos 2263 4.3 20:14:43 10° SSW 20:20:21 58° ESE 20:20:35 58° ESE
Starlink (trailer) 4.3 20:17:06 10° SW 20:20:17 53° SW 20:20:17 53° SW
STARLINK-62 4.4 20:17:46 10° SW 20:20:44 48° SW 20:20:44 48° SW
NOSS 3-1 (A) 3.2 20:16:47 10° SW 20:22:47 70° WNW 20:23:23 64° NNW
STARLINK-38 4.3 20:18:47 10° SW 20:21:53 51° SW 20:21:53 51° SW
STARLINK-65 4.4 20:20:26 10° SW 20:23:28 49° SW 20:23:28 49° SW
Resurs 01 Rocket 2.1 20:21:38 10° S 20:26:02 56° WSW 20:26:27 54° W
STARLINK-53 4.5 20:22:10 10° SW 20:25:09 47° SW 20:25:09 47° SW
Mayak -0.6 20:28:03 56° S 20:28:03 56° S 20:31:28 10° S
Cosmos 1340 3.9 20:25:27 10° SSW 20:28:06 40° SSW 20:28:06 40° SSW
Meteor 1-14 Rocket 4.3 20:34:27 10° S 20:40:13 69° ESE 20:40:13 69° ESE
Cosmos 921 Rocket 4.4 20:40:10 10° SSW 20:43:19 33° WSW 20:43:19 33° WSW
Spot 2 Rocket 3.8 20:41:10 10° S 20:45:33 64° S 20:45:33 64° S
Cosmos 2369 Rocket 2.8 20:48:45 10° SSW 20:54:00 48° W 20:54:00 48° W
SPOT 1/Viking Rocket 4.4 21:01:56 10° SSE 21:05:32 45° SSE 21:05:32 45° SSE
ERS-1 Rocket 4.3 21:03:55 10° SSE 21:06:46 34° SSE 21:06:46 34° SSE
Cosmos 2034 Rocket 4.3 21:04:11 10° SSW 21:10:30 61° W 21:10:34 61° W
Tsikada Rocket 4.4 21:16:34 59° W 21:16:43 59° W 21:23:08 10° S
ATLAS 3B CENTAUR R/B 4.2 21:21:36 10° WNW 21:46:27 - ENE 21:22:55 20° WNW
Terra 3.8 21:34:18 10° SSE 21:36:15 25° SSE 21:36:15 25° SSE
Lacrosse 5 3.9 21:55:04 10° SSW 21:57:43 25° S 21:57:43 25° S
USA 234 3.7 22:01:14 10° SE 22:07:24 56° SSW 22:07:24 56° SSW
ATLAS 2AS CENTAUR R/B 3.6 22:40:57 10° SSW 22:46:17 43° SSE 22:46:17 43° SSE
Cosmos 2344 4.2 22:58:39 10° SW 23:11:07 73° WNW 23:11:07 73° WNW
Cosmos 2082 Rocket 3.9 23:14:54 30° SSE 23:14:54 30° SSE 23:17:43 10° SSE
COSMOS 2455 4.4 23:38:53 10° SSW 23:41:41 29° SSW 23:41:41 29° SSW
CZ-2D R/B 3.9 23:54:56 27° SSW 23:54:56 27° SSW 23:57:18 10° SSW
